[[{"header":{"parameterUnit":"m.s-1","parameterCategory":2,"la1":30.2991,"la2":30.254,"lo1":-89.0895,"lo2":-89.0444,"dx":0.0017,"dy":0.0017,"nx":28,"ny":28,"refTime":"2022-12-13T09:00:00:Z","depth":"0","parameterNumber":2,"parameterNumberName":"U-component_of_CURRENTS"},"data":[0,0,0,0,0,0,0,0,0,0,0,0,0,0,0,0,0,0,0,0,0,0,0,0,0,0,0,0,0,0,0,0,0,0,0,0,0,0,0,0,0,0,0,0,0,0,0,0,0,0,0,0,0,0,0,0,0,0,-0.2507,-0.2508,0,-0.2551,-0.2551,-0.2552,-0.2574,-0.2574,-0.2574,-0.2574,-0.2526,-0.2525,-0.2524,0,0,0,0,0,0,0,0,0,0,0,0,0,-0.2458,-0.2459,-0.2507,-0.2508,-0.2508,-0.255,-0.2551,-0.2552,-0.2574,-0.2574,-0.2574,-0.2574,-0.2527,-0.2525,-0.2524,0,0,0,0,0,0,0,0,0,0,0,0,0,-0.2488,-0.2459,-0.2507,-0.2524,-0.2526,-0.255,-0.2551,-0.2552,-0.2574,-0.2574,-0.2574,-0.2574,-0.2527,-0.2525,-0.2523,-0.251,0,0,-0.2517,-0.2516,0,0,0,0,0,0,0,0,-0.2486,-0.249,-0.2521,-0.2523,-0.2526,-0.2557,-0.2517,-0.2533,-0.2574,-0.2555,-0.2574,-0.2574,-0.2528,-0.2526,-0.2535,-0.2508,-0.2506,-0.2517,-0.2516,-0.2515,-0.2515,0,0,0,0,0,0,0,-0.2484,-0.2488,-0.2524,-0.2522,-0.2525,-0.2535,-0.2539,-0.252,-0.2539,-0.2557,-0.2559,-0.2564,-0.2529,-0.2537,-0.2534,-0.2505,-0.2517,-0.2515,-0.2514,-0.2514,-0.2544,-0.2546,0,0,0,0,0,0,-0.2478,-0.2486,-0.2523,-0.2525,-0.2506,-0.2536,-0.2541,-0.2547,-0.2541,-0.2541,-0.2564,-0.2565,-0.254,-0.2536,-0.2532,-0.2581,-0.2515,-0.2513,-0.2512,-0.2542,-0.2545,-0.2547,0,0,0,0,0,0,-0.2477,-0.2481,-0.2521,-0.2507,-0.2513,-0.2537,-0.2543,-0.2547,-0.2552,-0.2548,-0.2546,-0.2564,-0.254,-0.2535,-0.2543,-0.2577,-0.2512,-0.2511,-0.254,-0.2543,-0.2546,-0.2636,0,0,0,0,0,0,-0.2476,-0.2481,-0.2478,-0.2506,-0.2513,-0.2542,-0.2543,-0.2548,-0.2556,-0.2557,-0.2547,-0.2543,-0.254,-0.2546,-0.2541,-0.2573,-0.2509,-0.2537,-0.2541,-0.2545,-0.2631,-0.2642,-0.2652,0,0,0,0,0,-0.2474,-0.2474,-0.2477,-0.2482,-0.251,-0.2542,-0.2547,-0.2564,-0.2556,-0.2566,-0.2573,-0.2543,-0.2566,-0.2546,-0.2539,-0.2571,-0.2536,-0.254,-0.2545,-0.2626,-0.264,-0.2652,0,0,0,0,0,0,-0.244,-0.2477,-0.2481,-0.2489,-0.2515,-0.2546,-0.2552,-0.2558,-0.2572,-0.2569,-0.2559,-0.2557,-0.258,-0.2561,-0.2538,-0.2594,-0.2549,-0.2552,-0.2613,-0.2626,-0.2636,-0.2625,-0.2508,0,0,0,0,0,-0.2433,-0.2447,-0.2481,-0.2484,-0.2499,-0.2521,-0.2531,-0.2547,-0.2564,-0.257,-0.257,-0.2575,-0.2594,-0.2596,-0.2601,-0.2618,-0.2568,-0.2639,-0.2649,-0.2658,-0.2647,-0.2621,-0.2628,-0.2562,-0.2562,-0.2561,0,0,-0.2418,-0.2439,-0.2445,-0.2478,-0.2497,-0.2537,-0.2528,-0.2549,-0.259,-0.2559,-0.2601,-0.2601,-0.2606,-0.2646,-0.2654,-0.2632,-0.265,-0.2664,-0.2671,-0.2655,-0.2627,-0.2632,-0.2638,-0.2565,-0.2564,-0.2564,0,0,-0.2412,-0.2417,-0.2439,-0.2468,-0.2504,-0.2532,-0.2537,-0.2574,-0.2598,-0.2636,-0.264,-0.2656,-0.2675,-0.2698,-0.271,-0.2771,-0.2704,-0.2779,-0.2823,-0.28,-0.2804,-0.2808,-0.2744,-0.2741,-0.2788,-0.2788,-0.2788,0,-0.2394,-0.2427,-0.2447,-0.2484,-0.2513,-0.2533,-0.2573,-0.2609,-0.2646,-0.2668,-0.266,-0.2706,-0.2704,-0.276,-0.2799,-0.2793,-0.2753,-0.2777,-0.2811,-0.2814,-0.2815,-0.2749,-0.2744,-0.2793,-0.2793,-0.2792,-0.2792,0,-0.2417,-0.2447,-0.2461,-0.2525,-0.2559,-0.259,-0.2651,-0.2683,-0.2707,-0.2739,-0.2786,-0.2795,-0.2814,-0.2836,-0.284,-0.2872,-0.2829,-0.2823,-0.2774,-0.2827,-0.2754,-0.2747,-0.28,-0.2798,-0.2797,-0.2796,0,0,-0.2367,-0.2463,-0.2466,-0.2502,-0.2583,-0.2608,-0.2689,-0.276,-0.2784,-0.2835,-0.2862,-0.2929,-0.2911,-0.2922,-0.2925,-0.292,-0.2904,-0.2885,-0.2882,-0.2811,-0.282,-0.2801,-0.2791,-0.2907,-0.2907,-0.2906,-0.2759,0,-0.238,-0.2454,-0.2506,-0.2574,-0.2619,-0.2677,-0.2742,-0.2805,-0.2845,-0.2872,-0.2908,-0.2924,-0.2955,-0.2944,-0.2959,-0.2906,-0.2892,-0.2941,-0.2787,-0.2782,-0.2751,-0.2786,-0.2717,-0.2583,-0.2752,-0.2751,-0.275,0,-0.2384,-0.2438,-0.2513,-0.2601,-0.2623,-0.2665,-0.2742,-0.28,-0.2866,-0.289,-0.293,-0.2935,-0.2957,-0.295,-0.2912,-0.2942,-0.289,-0.2851,-0.2844,-0.2787,-0.2752,-0.2561,-0.2563,-0.2557,-0.2739,-0.274,-0.2741,0,-0.2333,-0.2434,-0.2492,-0.2525,-0.2634,-0.2667,-0.2715,-0.2793,-0.2827,-0.2875,-0.2876,-0.2918,-0.2898,-0.2876,-0.2843,-0.286,-0.2764,-0.2766,-0.2699,-0.2695,-0.2584,-0.2571,-0.2551,-0.2722,-0.2723,-0.2723,-0.2723,0,-0.2329,-0.2362,-0.2463,-0.2492,-0.2529,-0.262,-0.2651,-0.2707,-0.2764,-0.2791,-0.2858,-0.2865,-0.2878,-0.2848,-0.2817,-0.2741,-0.2744,-0.2697,-0.2665,-0.2615,-0.2607,-0.2554,-0.2558,-0.2717,-0.2719,-0.272,-0.2721,0,-0.2254,-0.2337,-0.2381,-0.2482,-0.2506,-0.2517,-0.2592,-0.2622,-0.2683,-0.2709,-0.2719,-0.2791,-0.2768,-0.2767,-0.2698,-0.2684,-0.2572,-0.2588,-0.2516,-0.2481,-0.2426,-0.2437,-0.2316,-0.226,-0.2469,-0.2468,-0.2467,0,-0.2221,-0.2245,-0.2326,-0.235,-0.2388,-0.2427,-0.2469,-0.2559,-0.26,-0.2669,-0.2681,-0.2681,-0.2704,-0.2614,-0.2581,-0.2503,-0.2496,-0.2383,-0.2423,-0.2412,-0.24,-0.2393,-0.2355,-0.2289,-0.2287,-0.2285,-0.2283,0,-0.2135,-0.2158,-0.2199,-0.2243,-0.2284,-0.232,-0.2386,-0.2399,-0.2515,-0.2545,-0.2589,-0.2601,-0.2586,-0.2519,-0.2448,-0.2389,-0.2337,-0.2341,-0.2345,-0.2276,-0.2246,-0.218,-0.2376,-0.2266,-0.2268,-0.2269,-0.227,-0.2271,-0.2038,-0.2032,-0.2087,-0.2112,-0.2161,-0.2188,-0.217,-0.2269,-0.2294,-0.2323,-0.2435,-0.2431,-0.2446,-0.2359,-0.2322,-0.2216,-0.222,-0.2142,-0.2153,-0.2144,-0.2118,-0.2275,-0.2141,-0.2142,-0.2143,-0.2144,-0.2144,0,-0.1915,-0.1936,-0.1961,-0.1984,-0.1977,-0.2048,-0.2099,-0.207,-0.2062,-0.216,-0.2187,-0.2227,-0.2179,-0.2194,-0.2135,-0.2057,-0.2008,-0.1987,-0.1961,-0.1928,-0.2065,-0.209,-0.1922,-0.1922,-0.1922,-0.1922,-0.1922,-0.1922,-0.1856,-0.1836,-0.1852,-0.1787,-0.1802,-0.1739,-0.1731,-0.1721,-0.1758,-0.1773,-0.1835,-0.1934,-0.1974,-0.2134,-0.2058,-0.1968,-0.1912,-0.1837,-0.1848,-0.197,-0.1986,-0.2002,-0.2028,-0.185,-0.185,-0.1662,-0.166,-0.1659]},{"header":{"parameterUnit":"m.s-1","parameterCategory":2,"la1":30.2991,"la2":30.254,"lo1":-89.0895,"lo2":-89.0444,"dx":0.0017,"dy":0.0017,"nx":28,"ny":28,"refTime":"2022-12-13T09:00:00:Z","depth":"0","parameterNumber":3,"parameterNumberName":"V-component_of_CURRENTS"},"data":[0,0,0,0,0,0,0,0,0,0,0,0,0,0,0,0,0,0,0,0,0,0,0,0,0,0,0,0,0,0,0,0,0,0,0,0,0,0,0,0,0,0,0,0,0,0,0,0,0,0,0,0,0,0,0,0,0,0,-0.0121,-0.012,0,-0.0045,-0.0044,-0.0043,-0.0002,-0.0002,-0.0002,-0.0002,0.0067,0.0068,0.007,0,0,0,0,0,0,0,0,0,0,0,0,0,-0.0181,-0.0181,-0.0121,-0.012,-0.0119,-0.0045,-0.0044,-0.0043,-0.0002,-0.0002,-0.0002,-0.0002,0.0066,0.0068,0.007,0,0,0,0,0,0,0,0,0,0,0,0,0,-0.0135,-0.0181,-0.0121,-0.009,-0.0086,-0.0045,-0.0044,-0.0043,-0.0002,-0.0002,-0.0002,-0.0002,0.0065,0.0068,0.007,0.0084,0,0,0.0078,0.008,0,0,0,0,0,0,0,0,-0.0138,-0.0133,-0.0095,-0.0092,-0.0088,-0.0033,-0.004,-0.0001,-0.0002,-0.0034,-0.0002,-0.0001,0.0032,0.0038,0.0052,0.0087,0.009,0.0079,0.008,0.0081,0.0082,0,0,0,0,0,0,0,-0.0141,-0.0136,-0.009,-0.0094,-0.009,-0.0063,-0.0057,-0.0032,-0.0002,-0.0031,-0.0028,-0.002,0.0034,0.005,0.0054,0.0091,0.0079,0.0081,0.0082,0.0083,0.0171,0.0172,0,0,0,0,0,0,-0.0154,-0.0139,-0.0093,-0.0088,-0.0113,-0.0062,-0.0055,-0.005,-0.0002,0.0005,-0.002,-0.0018,0.0045,0.0051,0.0057,0.0088,0.0081,0.0084,0.0085,0.0171,0.0171,0.0172,0,0,0,0,0,0,-0.0155,-0.015,-0.0096,-0.0112,-0.0103,-0.0062,-0.0056,-0.0049,-0.0034,0.0006,0.0014,-0.0013,0.0045,0.0053,0.0084,0.009,0.0085,0.0087,0.017,0.0171,0.0172,0.0143,0,0,0,0,0,0,-0.0157,-0.0152,-0.0155,-0.0113,-0.0103,-0.0078,-0.0056,-0.0048,-0.003,-0.0027,0.0014,0.0021,0.0046,0.008,0.0087,0.0094,0.0089,0.0169,0.017,0.0172,0.0143,0.0143,0.0143,0,0,0,0,0,-0.016,-0.0168,-0.0156,-0.0151,-0.0109,-0.0079,-0.0071,-0.0041,-0.003,-0.0027,0.0009,0.002,0.0094,0.0083,0.009,0.0098,0.0168,0.017,0.0171,0.0143,0.0143,0.0143,0,0,0,0,0,0,-0.0198,-0.0163,-0.015,-0.0147,-0.0118,-0.0072,-0.0068,-0.0045,-0.0014,-0.0013,0.0027,0.0036,0.0066,0.0088,0.0075,0.013,0.0134,0.0137,0.011,0.011,0.011,0.0099,0.0092,0,0,0,0,0,-0.0208,-0.0205,-0.0164,-0.0163,-0.0152,-0.0111,-0.0096,-0.0075,-0.004,-0.0027,0.0005,0.0043,0.008,0.0098,0.0128,0.0156,0.0179,0.0169,0.0169,0.0169,0.0166,0.0222,0.0226,0.0178,0.0178,0.0178,0,0,-0.0223,-0.0204,-0.0202,-0.0171,-0.0148,-0.014,-0.0102,-0.0085,-0.0071,-0.0025,-0.0001,0.0039,0.0087,0.012,0.0136,0.0139,0.0191,0.0171,0.017,0.0168,0.0224,0.0229,0.0233,0.0179,0.0179,0.0179,0,0,-0.0257,-0.0234,-0.0245,-0.0226,-0.0196,-0.0165,-0.0163,-0.0119,-0.0092,-0.0061,-0.0019,0.0028,0.0073,0.0119,0.0147,0.0166,0.0187,0.0174,0.0167,0.0221,0.0225,0.0229,0.0245,0.025,0.0177,0.0177,0.0177,0,-0.0279,-0.0287,-0.0244,-0.025,-0.024,-0.0181,-0.0191,-0.0151,-0.01,-0.0071,-0.0062,0.0038,0.0075,0.0138,0.0148,0.0166,0.0186,0.016,0.022,0.0225,0.0229,0.0244,0.0251,0.0176,0.0176,0.0176,0.0176,0,-0.032,-0.0327,-0.0332,-0.0319,-0.0298,-0.0297,-0.0239,-0.0208,-0.0168,-0.0119,-0.0051,0.0014,0.0075,0.01,0.0129,0.0188,0.0186,0.0209,0.0215,0.0232,0.0247,0.0254,0.0174,0.0174,0.0175,0.0175,0,0,-0.0369,-0.0365,-0.0367,-0.0378,-0.0337,-0.0326,-0.0291,-0.0236,-0.0207,-0.0137,-0.0092,-0.0004,0.0045,0.0081,0.0134,0.0188,0.0235,0.0209,0.0212,0.0214,0.0326,0.0364,0.0375,0.0269,0.0271,0.0272,0.0315,0,-0.0418,-0.046,-0.0429,-0.0454,-0.0471,-0.0402,-0.0373,-0.0308,-0.0241,-0.0179,-0.0075,-0.0018,0.0036,0.0064,0.0132,0.021,0.0256,0.0219,0.0318,0.032,0.0345,0.0387,0.0429,0.0476,0.0323,0.0324,0.0325,0,-0.0472,-0.0493,-0.0538,-0.0528,-0.0525,-0.052,-0.0458,-0.0424,-0.0306,-0.025,-0.0155,-0.0074,0.0027,0.0062,0.0208,0.018,0.0247,0.0307,0.0311,0.0363,0.0374,0.044,0.0496,0.0631,0.0336,0.0336,0.0335,0,-0.0544,-0.0563,-0.0605,-0.0606,-0.0581,-0.0573,-0.0547,-0.0449,-0.041,-0.0297,-0.0253,-0.0116,-0.0052,0.0063,0.0206,0.0202,0.0358,0.0366,0.046,0.0462,0.0527,0.0532,0.072,0.0463,0.0463,0.0463,0.0463,0,-0.0618,-0.0646,-0.0646,-0.0672,-0.0698,-0.0649,-0.0639,-0.0582,-0.0493,-0.0439,-0.0302,-0.0232,-0.0045,0.0079,0.0191,0.0356,0.0349,0.0467,0.049,0.0516,0.052,0.0664,0.0703,0.0464,0.0464,0.0464,0.0463,0,-0.0695,-0.0699,-0.0743,-0.074,-0.0741,-0.0758,-0.0719,-0.0699,-0.0607,-0.0536,-0.0504,-0.0316,-0.0143,0.0039,0.0231,0.0337,0.0566,0.0537,0.0538,0.0563,0.0772,0.0806,0.0988,0.105,0.0638,0.064,0.0641,0,-0.0742,-0.0777,-0.0805,-0.0837,-0.0842,-0.0854,-0.0853,-0.0772,-0.0738,-0.058,-0.0549,-0.0359,-0.0198,0.0098,0.0332,0.0544,0.0636,0.068,0.0696,0.0806,0.0861,0.0884,0.0924,0.0755,0.0757,0.0759,0.076,0,-0.0821,-0.0825,-0.0862,-0.0934,-0.0959,-0.0969,-0.0958,-0.0951,-0.0832,-0.0741,-0.0594,-0.0455,-0.0121,0.0185,0.0478,0.0596,0.0783,0.072,0.0856,0.0994,0.1011,0.1074,0.067,0.0775,0.0774,0.0773,0.0772,0.0771,-0.0864,-0.091,-0.0961,-0.1023,-0.1054,-0.1073,-0.1079,-0.1033,-0.0966,-0.0799,-0.0654,-0.0397,0.007,0.0515,0.0657,0.0983,0.0925,0.1066,0.1099,0.1113,0.1189,0.08,0.0925,0.0924,0.0924,0.0923,0.0923,0,-0.0919,-0.0971,-0.1044,-0.1108,-0.1152,-0.1143,-0.1132,-0.1094,-0.1016,-0.0812,-0.0628,-0.0084,0.0347,0.0744,0.123,0.1375,0.1389,0.1425,0.1483,0.1505,0.1194,0.1218,0.1387,0.1387,0.1387,0.1387,0.1387,0.1387,-0.095,-0.1037,-0.1079,-0.1175,-0.1213,-0.1241,-0.1232,-0.1141,-0.0992,-0.0648,-0.0318,-0.004,0.0553,0.134,0.1749,0.1748,0.1863,0.1829,0.1882,0.1687,0.1656,0.1626,0.1663,0.1923,0.1923,0.2194,0.2197,0.2199]}],[{"header":{"parameterUnit":"m.s-1","parameterCategory":2,"la1":30.2991,"la2":30.254,"lo1":-89.0895,"lo2":-89.0444,"dx":0.0017,"dy":0.0017,"nx":28,"ny":28,"refTime":"2022-12-13T09:00:00:Z","depth":"2","parameterNumber":2,"parameterNumberName":"U-component_of_CURRENTS"},"data":[0,0,0,0,0,0,0,0,0,0,0,0,0,0,0,0,0,0,0,0,0,0,0,0,0,0,0,0,0,0,0,0,0,0,0,0,0,0,0,0,0,0,0,0,0,0,0,0,0,0,0,0,0,0,0,0,0,0,-0.229,-0.2291,0,-0.2304,-0.2304,-0.2304,-0.2312,-0.2313,-0.2313,-0.2313,-0.2293,-0.2292,-0.2291,0,0,0,0,0,0,0,0,0,0,0,0,0,-0.2248,-0.2249,-0.229,-0.2291,-0.2291,-0.2304,-0.2304,-0.2304,-0.2312,-0.2313,-0.2313,-0.2313,-0.2293,-0.2292,-0.2291,0,0,0,0,0,0,0,0,0,0,0,0,0,-0.2263,-0.2249,-0.229,-0.2298,-0.2299,-0.2304,-0.2304,-0.2304,-0.2312,-0.2313,-0.2313,-0.2313,-0.2293,-0.2292,-0.2291,-0.2277,0,0,-0.2287,-0.2287,0,0,0,0,0,0,0,0,-0.2262,-0.2264,-0.2297,-0.2298,-0.2299,-0.2309,-0.2282,-0.2294,-0.2312,-0.2305,-0.2313,-0.2313,-0.2296,-0.2295,-0.2294,-0.2276,-0.2275,-0.2287,-0.2287,-0.2286,-0.2286,0,0,0,0,0,0,0,-0.2261,-0.2263,-0.2293,-0.2297,-0.2298,-0.2294,-0.2296,-0.2284,-0.2296,-0.2306,-0.2307,-0.2312,-0.2296,-0.2295,-0.2293,-0.2275,-0.2287,-0.2286,-0.2286,-0.2285,-0.2333,-0.2335,0,0,0,0,0,0,-0.2265,-0.2263,-0.2293,-0.2294,-0.2283,-0.2294,-0.2297,-0.2303,-0.2297,-0.2297,-0.2311,-0.2312,-0.2297,-0.2295,-0.2293,-0.2355,-0.2286,-0.2285,-0.2284,-0.2331,-0.2334,-0.2336,0,0,0,0,0,0,-0.2264,-0.2267,-0.2293,-0.228,-0.2283,-0.2295,-0.2302,-0.2304,-0.2307,-0.2302,-0.2301,-0.2315,-0.2297,-0.2294,-0.2311,-0.2351,-0.2285,-0.2284,-0.2329,-0.2332,-0.2335,-0.2428,0,0,0,0,0,0,-0.2262,-0.2267,-0.2267,-0.2281,-0.2284,-0.2309,-0.2302,-0.2304,-0.2311,-0.2312,-0.2304,-0.2303,-0.2297,-0.2313,-0.231,-0.2348,-0.2283,-0.2327,-0.233,-0.2334,-0.2422,-0.2434,-0.2443,0,0,0,0,0,-0.2261,-0.2264,-0.2267,-0.227,-0.2286,-0.231,-0.2312,-0.2319,-0.2311,-0.2321,-0.2327,-0.2303,-0.2335,-0.2314,-0.2309,-0.2348,-0.2325,-0.2329,-0.2334,-0.2418,-0.2431,-0.2443,0,0,0,0,0,0,-0.2235,-0.2266,-0.2269,-0.2278,-0.2299,-0.2313,-0.2316,-0.232,-0.233,-0.2329,-0.2319,-0.2319,-0.2353,-0.2334,-0.2311,-0.2375,-0.2329,-0.2333,-0.2394,-0.2407,-0.2417,-0.2397,-0.2282,0,0,0,0,0,-0.2232,-0.2245,-0.2273,-0.2276,-0.229,-0.2301,-0.2308,-0.2318,-0.2331,-0.2335,-0.2335,-0.2342,-0.2366,-0.2373,-0.238,-0.2403,-0.2354,-0.2429,-0.2439,-0.2448,-0.2431,-0.2413,-0.2419,-0.235,-0.235,-0.235,0,0,-0.2219,-0.2237,-0.2242,-0.2272,-0.2283,-0.2316,-0.2306,-0.2324,-0.2353,-0.233,-0.2361,-0.2371,-0.238,-0.2423,-0.2436,-0.2413,-0.2442,-0.2454,-0.2461,-0.2439,-0.2418,-0.2424,-0.243,-0.2353,-0.2353,-0.2352,0,0,-0.2214,-0.2222,-0.2241,-0.2268,-0.2298,-0.2316,-0.2325,-0.2351,-0.2367,-0.2399,-0.2406,-0.2434,-0.2454,-0.2479,-0.2492,-0.2557,-0.2497,-0.2572,-0.2609,-0.2593,-0.2598,-0.2601,-0.254,-0.2537,-0.2579,-0.2579,-0.2579,0,-0.2199,-0.2229,-0.2247,-0.2281,-0.2306,-0.2321,-0.2357,-0.2379,-0.2408,-0.2424,-0.2421,-0.2474,-0.248,-0.2541,-0.258,-0.2579,-0.2544,-0.2563,-0.2605,-0.2607,-0.2609,-0.2545,-0.2541,-0.2584,-0.2584,-0.2583,-0.2583,0,-0.2218,-0.2248,-0.2261,-0.2315,-0.2344,-0.2373,-0.2419,-0.2443,-0.246,-0.2483,-0.2535,-0.2554,-0.2581,-0.261,-0.2617,-0.2658,-0.2619,-0.2619,-0.2568,-0.2621,-0.2551,-0.2545,-0.2591,-0.259,-0.2588,-0.2587,0,0,-0.217,-0.226,-0.2264,-0.2297,-0.2367,-0.2388,-0.2447,-0.2502,-0.2521,-0.2566,-0.259,-0.2665,-0.2664,-0.2679,-0.2698,-0.2697,-0.2691,-0.2673,-0.267,-0.2601,-0.2623,-0.2604,-0.2594,-0.2705,-0.2705,-0.2705,-0.2565,0,-0.2181,-0.2249,-0.2296,-0.2356,-0.2396,-0.2443,-0.2491,-0.254,-0.2571,-0.2595,-0.2636,-0.2663,-0.2698,-0.2707,-0.2724,-0.2692,-0.268,-0.2726,-0.2588,-0.2583,-0.2552,-0.2589,-0.242,-0.2283,-0.2558,-0.2557,-0.2556,0,-0.2183,-0.2233,-0.2301,-0.2381,-0.24,-0.2437,-0.2497,-0.2542,-0.2596,-0.2617,-0.2663,-0.2677,-0.2707,-0.271,-0.2687,-0.2717,-0.2676,-0.2646,-0.264,-0.2579,-0.2553,-0.2276,-0.226,-0.2545,-0.2546,-0.2547,-0.2547,0,-0.2135,-0.2229,-0.2281,-0.2312,-0.2409,-0.2437,-0.2478,-0.2542,-0.2567,-0.2614,-0.262,-0.2667,-0.2664,-0.2648,-0.2628,-0.2645,-0.2566,-0.2571,-0.2509,-0.2504,-0.2308,-0.2288,-0.2533,-0.2533,-0.2534,-0.2534,-0.2534,0,-0.2129,-0.2161,-0.2258,-0.2285,-0.2319,-0.2402,-0.2431,-0.2477,-0.253,-0.2555,-0.2618,-0.2631,-0.265,-0.2628,-0.2603,-0.2539,-0.2545,-0.2502,-0.2476,-0.2337,-0.2323,-0.2512,-0.2511,-0.2529,-0.253,-0.2531,-0.2532,0,-0.206,-0.2139,-0.218,-0.2275,-0.2298,-0.231,-0.2382,-0.241,-0.247,-0.2495,-0.2507,-0.2574,-0.2557,-0.2558,-0.2504,-0.2489,-0.243,-0.2405,-0.2227,-0.2186,-0.2372,-0.2378,-0.2292,-0.229,-0.2288,-0.2287,-0.2286,0,-0.2029,-0.2052,-0.2129,-0.2152,-0.2191,-0.2231,-0.227,-0.2355,-0.2393,-0.2463,-0.2473,-0.2481,-0.2496,-0.2419,-0.2377,-0.2301,-0.2369,-0.2099,-0.2121,-0.2368,-0.2351,-0.2359,-0.2367,-0.1871,-0.1867,-0.1864,-0.1861,0,-0.1948,-0.1973,-0.201,-0.2053,-0.2094,-0.2127,-0.2191,-0.2204,-0.2314,-0.2343,-0.2384,-0.2394,-0.2372,-0.2246,-0.2175,-0.2112,-0.2105,-0.2028,-0.2302,-0.1998,-0.1972,-0.1957,-0.1977,-0.1829,-0.1833,-0.1835,-0.1837,-0.1838,-0.1859,-0.1853,-0.1905,-0.1929,-0.1976,-0.2,-0.1981,-0.2072,-0.2093,-0.2105,-0.2218,-0.2166,-0.2165,-0.1981,-0.1897,-0.1814,-0.1952,-0.1845,-0.1854,-0.1868,-0.1884,-0.1861,-0.1696,-0.1698,-0.17,-0.1702,-0.1704,0,-0.1743,-0.1762,-0.1785,-0.1807,-0.1798,-0.1868,-0.1912,-0.1872,-0.1856,-0.191,-0.1922,-0.174,-0.1681,-0.1672,-0.1524,-0.1515,-0.1486,-0.1433,-0.1387,-0.1419,-0.1447,-0.1442,-0.1136,-0.1134,-0.1133,-0.1131,0,0,-0.1687,-0.1664,-0.1677,-0.1614,-0.1631,-0.1567,-0.1555,-0.1521,-0.152,-0.1448,-0.142,-0.1554,-0.1617,-0.1363,-0.1322,-0.1206,-0.129,-0.1145,-0.1598,-0.1573,-0.1599,-0.1682,-0.1711,0,0,0,0,0]},{"header":{"parameterUnit":"m.s-1","parameterCategory":2,"la1":30.2991,"la2":30.254,"lo1":-89.0895,"lo2":-89.0444,"dx":0.0017,"dy":0.0017,"nx":28,"ny":28,"refTime":"2022-12-13T09:00:00:Z","depth":"2","parameterNumber":3,"parameterNumberName":"V-component_of_CURRENTS"},"data":[0,0,0,0,0,0,0,0,0,0,0,0,0,0,0,0,0,0,0,0,0,0,0,0,0,0,0,0,0,0,0,0,0,0,0,0,0,0,0,0,0,0,0,0,0,0,0,0,0,0,0,0,0,0,0,0,0,0,-0.016,-0.0159,0,-0.01,-0.0099,-0.0098,-0.0065,-0.0065,-0.0065,-0.0064,-0.0005,-0.0003,-0.0002,0,0,0,0,0,0,0,0,0,0,0,0,0,-0.0211,-0.0211,-0.016,-0.0159,-0.0158,-0.01,-0.0099,-0.0098,-0.0065,-0.0065,-0.0065,-0.0064,-0.0005,-0.0003,-0.0002,0,0,0,0,0,0,0,0,0,0,0,0,0,-0.0174,-0.0211,-0.016,-0.0134,-0.0131,-0.01,-0.0099,-0.0098,-0.0065,-0.0065,-0.0064,-0.0064,-0.0006,-0.0004,-0.0001,0.0008,0,0,0.0005,0.0006,0,0,0,0,0,0,0,0,-0.0176,-0.0173,-0.0139,-0.0136,-0.0133,-0.0089,-0.0095,-0.0062,-0.0065,-0.0091,-0.0064,-0.0064,-0.0033,-0.0028,-0.0018,0.0011,0.0013,0.0005,0.0007,0.0008,0.0008,0,0,0,0,0,0,0,-0.0179,-0.0175,-0.0136,-0.0138,-0.0134,-0.0114,-0.0109,-0.0089,-0.0064,-0.0088,-0.0086,-0.0078,-0.0031,-0.002,-0.0017,0.0014,0.0005,0.0007,0.0009,0.001,0.008,0.008,0,0,0,0,0,0,-0.0188,-0.0177,-0.0138,-0.0135,-0.0154,-0.0113,-0.0107,-0.0104,-0.0064,-0.0058,-0.0079,-0.0077,-0.0024,-0.0019,-0.0014,0.0011,0.0008,0.001,0.0011,0.0079,0.008,0.008,0,0,0,0,0,0,-0.0189,-0.0185,-0.0141,-0.0154,-0.0147,-0.0113,-0.0109,-0.0103,-0.0091,-0.0057,-0.005,-0.0073,-0.0024,-0.0017,0.0007,0.0013,0.0011,0.0013,0.0079,0.0079,0.008,0.0054,0,0,0,0,0,0,-0.0191,-0.0186,-0.019,-0.0155,-0.0146,-0.0128,-0.0108,-0.0102,-0.0086,-0.0084,-0.005,-0.0044,-0.0023,0.0004,0.0009,0.0016,0.0014,0.0078,0.0079,0.008,0.0054,0.0054,0.0054,0,0,0,0,0,-0.0193,-0.0202,-0.019,-0.0186,-0.0152,-0.0128,-0.0122,-0.0097,-0.0087,-0.0085,-0.0057,-0.0045,0.0014,0.0006,0.0012,0.002,0.0077,0.0079,0.008,0.0054,0.0054,0.0054,0,0,0,0,0,0,-0.0229,-0.0198,-0.0185,-0.0184,-0.016,-0.0122,-0.0121,-0.01,-0.0076,-0.0075,-0.0041,-0.0033,-0.0009,0.001,-0.0,0.0045,0.0049,0.0052,0.0028,0.0027,0.0027,0.0016,0.0016,0,0,0,0,0,-0.0238,-0.0235,-0.02,-0.02,-0.019,-0.0155,-0.0144,-0.0126,-0.0098,-0.0087,-0.006,-0.0029,0.0001,0.0017,0.0041,0.0063,0.0087,0.0075,0.0074,0.0074,0.0071,0.0126,0.013,0.0084,0.0084,0.0084,0,0,-0.0252,-0.0235,-0.0234,-0.0208,-0.0188,-0.0183,-0.0148,-0.0135,-0.0127,-0.0085,-0.0069,-0.0033,0.0006,0.0033,0.0046,0.0049,0.0096,0.0075,0.0074,0.0072,0.0128,0.0132,0.0136,0.0085,0.0085,0.0085,0,0,-0.0285,-0.0264,-0.0276,-0.0259,-0.0233,-0.0207,-0.0205,-0.0167,-0.0147,-0.0124,-0.0087,-0.0045,-0.001,0.003,0.0052,0.0066,0.009,0.0073,0.0066,0.0119,0.0124,0.0127,0.0146,0.0152,0.0076,0.0076,0.0076,0,-0.0306,-0.0315,-0.0276,-0.0283,-0.0276,-0.0222,-0.0233,-0.0202,-0.016,-0.0137,-0.0127,-0.0043,-0.001,0.0041,0.0049,0.0065,0.0087,0.0061,0.0118,0.0123,0.0128,0.0146,0.0153,0.0075,0.0075,0.0075,0.0075,0,-0.0348,-0.0355,-0.0361,-0.0351,-0.0333,-0.0334,-0.0286,-0.0261,-0.0227,-0.0186,-0.013,-0.0072,-0.0019,0.0004,0.003,0.0084,0.0086,0.0108,0.0116,0.013,0.0149,0.0156,0.0073,0.0074,0.0074,0.0074,0,0,-0.0395,-0.0394,-0.0396,-0.0406,-0.0371,-0.0362,-0.0338,-0.0295,-0.0272,-0.0213,-0.0175,-0.0101,-0.0053,-0.0023,0.0028,0.0082,0.0131,0.0106,0.0109,0.0117,0.0227,0.0264,0.0275,0.0167,0.0169,0.017,0.0221,0,-0.0443,-0.0485,-0.0457,-0.0483,-0.05,-0.0439,-0.0418,-0.0366,-0.0308,-0.0256,-0.0165,-0.0115,-0.0066,-0.0037,0.0028,0.0107,0.0153,0.0114,0.0218,0.0221,0.0247,0.0287,0.0255,0.0302,0.0228,0.0229,0.023,0,-0.0495,-0.0516,-0.0561,-0.0554,-0.0552,-0.0549,-0.0498,-0.0472,-0.0372,-0.0324,-0.024,-0.0166,-0.0073,-0.0037,0.0104,0.0077,0.0146,0.0207,0.0211,0.026,0.0273,0.0281,0.0318,0.0243,0.0242,0.0241,0.024,0,-0.0562,-0.0583,-0.0624,-0.0625,-0.0606,-0.0602,-0.0579,-0.0497,-0.0465,-0.0365,-0.0324,-0.0201,-0.0137,-0.0027,0.0112,0.0107,0.0263,0.027,0.0363,0.0365,0.0366,0.0366,0.0366,0.0366,0.0366,0.0366,0.0366,0,-0.0633,-0.0661,-0.0662,-0.0688,-0.0715,-0.0671,-0.0666,-0.0617,-0.0537,-0.0491,-0.0367,-0.0301,-0.0127,-0.0006,0.0101,0.0263,0.0258,0.0369,0.0394,0.0355,0.0354,0.0328,0.0323,0.0368,0.0367,0.0367,0.0366,0,-0.0705,-0.071,-0.0753,-0.0753,-0.0755,-0.0773,-0.074,-0.0724,-0.064,-0.0576,-0.0546,-0.0372,-0.0205,-0.0034,0.0153,0.0252,0.0393,0.0447,0.0376,0.0393,0.0449,0.0442,0.0543,0.0545,0.0547,0.0548,0.0549,0,-0.075,-0.0783,-0.0811,-0.0842,-0.0849,-0.0863,-0.0864,-0.0791,-0.0762,-0.0613,-0.0584,-0.0402,-0.0254,0.0033,0.0245,0.0445,0.0443,0.0515,0.0514,0.046,0.0474,0.0464,0.0455,0.0489,0.049,0.049,0.0491,0,-0.0825,-0.0829,-0.0865,-0.0934,-0.096,-0.0972,-0.0964,-0.0958,-0.0848,-0.0764,-0.0624,-0.0495,-0.0185,0.0065,0.0341,0.0445,0.0483,0.0533,0.0516,0.0457,0.0417,0.0428,0.0419,0.0495,0.0495,0.0494,0.0494,0.0494,-0.0866,-0.091,-0.0959,-0.1019,-0.1051,-0.107,-0.1077,-0.1035,-0.0974,-0.0819,-0.0684,-0.0458,-0.0194,0.0212,0.0401,0.0568,0.0566,0.0589,0.0584,0.0579,0.0573,0.0539,0.0636,0.0636,0.0636,0.0637,0.0637,0,-0.0919,-0.0968,-0.1039,-0.11,-0.1144,-0.1137,-0.1128,-0.1092,-0.102,-0.0839,-0.0671,-0.0377,-0.0078,0.0182,0.0469,0.0639,0.0608,0.0638,0.057,0.0565,0.0561,0.055,0.0609,0.0609,0.061,0.061,0,0,-0.0949,-0.1031,-0.1071,-0.1164,-0.1202,-0.1231,-0.1223,-0.1134,-0.1003,-0.082,-0.0635,-0.0382,-0.0056,0.0138,0.0354,0.0495,0.0475,0.0491,0.0495,0.0384,0.0378,0.0516,0.0493,0,0,0,0,0]}],[{"header":{"parameterUnit":"m.s-1","parameterCategory":2,"la1":30.2991,"la2":30.254,"lo1":-89.0895,"lo2":-89.0444,"dx":0.0017,"dy":0.0017,"nx":28,"ny":28,"refTime":"2022-12-13T09:00:00:Z","depth":"4","parameterNumber":2,"parameterNumberName":"U-component_of_CURRENTS"},"data":[0,0,0,0,0,0,0,0,0,0,0,0,0,0,0,0,0,0,0,0,0,0,0,0,0,0,0,0,0,0,0,0,0,0,0,0,0,0,0,0,0,0,0,0,0,0,0,0,0,0,0,0,0,0,0,0,0,0,-0.1606,-0.1607,0,-0.162,-0.162,-0.1619,-0.1604,-0.1604,-0.1603,-0.1603,-0.1578,-0.1577,-0.1577,0,0,0,0,0,0,0,0,0,0,0,0,0,-0.1535,-0.1536,-0.1606,-0.1607,-0.1607,-0.162,-0.162,-0.1619,-0.1604,-0.1604,-0.1603,-0.1603,-0.1578,-0.1578,-0.1577,0,0,0,0,0,0,0,0,0,0,0,0,0,-0.1555,-0.1537,-0.1606,-0.1604,-0.1605,-0.162,-0.162,-0.1619,-0.1604,-0.1604,-0.1603,-0.1603,-0.1578,-0.1578,-0.1577,-0.1577,0,0,-0.1574,-0.1574,0,0,0,0,0,0,0,0,-0.1554,-0.1557,-0.1604,-0.1605,-0.1605,-0.1614,-0.1586,-0.1605,-0.1604,-0.1599,-0.1603,-0.1603,-0.159,-0.1588,-0.1585,-0.1576,-0.1575,-0.1574,-0.1574,-0.1574,-0.1573,0,0,0,0,0,0,0,-0.1552,-0.1556,-0.1607,-0.1605,-0.1606,-0.1593,-0.1595,-0.1589,-0.1591,-0.16,-0.16,-0.1609,-0.1589,-0.1586,-0.1584,-0.1575,-0.1574,-0.1574,-0.1573,-0.1573,-0.1584,-0.1585,0,0,0,0,0,0,-0.1562,-0.1555,-0.1607,-0.1608,-0.1583,-0.1595,-0.1597,-0.1608,-0.1592,-0.1592,-0.1609,-0.1608,-0.1587,-0.1585,-0.1583,-0.1616,-0.1574,-0.1573,-0.1572,-0.1583,-0.1584,-0.1585,0,0,0,0,0,0,-0.1561,-0.1567,-0.1606,-0.1585,-0.159,-0.1597,-0.1608,-0.1608,-0.1631,-0.1601,-0.1598,-0.1636,-0.1587,-0.1584,-0.159,-0.1613,-0.1573,-0.1572,-0.1582,-0.1583,-0.1584,-0.166,0,0,0,0,0,0,-0.1558,-0.1566,-0.1583,-0.1586,-0.1592,-0.1634,-0.1609,-0.1609,-0.1637,-0.1637,-0.1622,-0.1618,-0.1587,-0.1592,-0.159,-0.1612,-0.1571,-0.1581,-0.1583,-0.1584,-0.1656,-0.1663,-0.1669,0,0,0,0,0,-0.1556,-0.1571,-0.1584,-0.1591,-0.1613,-0.1635,-0.1637,-0.1637,-0.1639,-0.1655,-0.1639,-0.162,-0.1599,-0.1592,-0.1589,-0.1612,-0.1581,-0.1582,-0.1584,-0.1653,-0.1662,-0.1669,0,0,0,0,0,0,-0.1538,-0.1572,-0.1585,-0.1608,-0.1634,-0.1635,-0.1649,-0.1659,-0.1661,-0.1662,-0.1632,-0.1627,-0.164,-0.1617,-0.161,-0.1617,-0.1586,-0.1587,-0.164,-0.1647,-0.1654,-0.1643,-0.1571,0,0,0,0,0,-0.1549,-0.1573,-0.1603,-0.1623,-0.164,-0.1655,-0.1668,-0.1677,-0.1678,-0.168,-0.1676,-0.166,-0.1641,-0.1639,-0.1624,-0.1634,-0.1617,-0.1645,-0.1651,-0.1657,-0.1645,-0.1636,-0.1641,-0.159,-0.159,-0.159,0,0,-0.1547,-0.1569,-0.1583,-0.1622,-0.1639,-0.167,-0.1661,-0.1693,-0.1712,-0.1677,-0.1703,-0.169,-0.165,-0.1654,-0.1658,-0.164,-0.1671,-0.1659,-0.1664,-0.1649,-0.1638,-0.1643,-0.1648,-0.1592,-0.1591,-0.1591,0,0,-0.155,-0.158,-0.1605,-0.1637,-0.168,-0.1692,-0.1714,-0.1745,-0.1751,-0.1779,-0.1749,-0.1747,-0.1744,-0.1709,-0.1689,-0.1723,-0.1708,-0.1733,-0.1755,-0.1748,-0.1752,-0.1755,-0.1777,-0.1782,-0.1733,-0.1733,-0.1733,0,-0.155,-0.1587,-0.1615,-0.165,-0.168,-0.171,-0.1747,-0.1758,-0.1787,-0.1788,-0.1798,-0.1779,-0.176,-0.1731,-0.1742,-0.1738,-0.1744,-0.1731,-0.1757,-0.1759,-0.1761,-0.1783,-0.1786,-0.1737,-0.1737,-0.1736,-0.1736,0,-0.1568,-0.1614,-0.1632,-0.169,-0.1723,-0.1761,-0.1793,-0.1824,-0.1848,-0.185,-0.1857,-0.1832,-0.1815,-0.1817,-0.179,-0.1791,-0.1798,-0.1771,-0.1739,-0.1771,-0.1792,-0.1795,-0.1743,-0.1741,-0.174,-0.1739,0,0,-0.1527,-0.1628,-0.1638,-0.1679,-0.1753,-0.1777,-0.1818,-0.1848,-0.1869,-0.1889,-0.1904,-0.1875,-0.1872,-0.1848,-0.1825,-0.1815,-0.1852,-0.1808,-0.1806,-0.1834,-0.1869,-0.1758,-0.1751,-0.1839,-0.1839,-0.1839,-0.1892,0,-0.1538,-0.161,-0.166,-0.1731,-0.1772,-0.1824,-0.1858,-0.1887,-0.1912,-0.1937,-0.1903,-0.1911,-0.1879,-0.1889,-0.1872,-0.1858,-0.1857,-0.1842,-0.1828,-0.1828,-0.1728,-0.1747,-0.1839,-0.1894,-0.1894,-0.1895,-0.1895,0,-0.1537,-0.159,-0.1666,-0.1759,-0.1782,-0.183,-0.1892,-0.1928,-0.1953,-0.1972,-0.1969,-0.1961,-0.1949,-0.1926,-0.1905,-0.1905,-0.1891,-0.1876,-0.1877,-0.1739,-0.1719,-0.1844,-0.1899,-0.1899,-0.1899,-0.1898,-0.1898,0,-0.148,-0.1589,-0.1651,-0.1687,-0.1795,-0.1834,-0.1886,-0.1934,-0.1953,-0.2,-0.2023,-0.2009,-0.2014,-0.1989,-0.1955,-0.1948,-0.1937,-0.1921,-0.1806,-0.18,-0.1853,-0.1849,-0.1898,-0.1898,-0.1898,-0.1898,-0.1898,0,-0.146,-0.1511,-0.1637,-0.1671,-0.1729,-0.182,-0.1873,-0.192,-0.1981,-0.1993,-0.2035,-0.203,-0.2031,-0.2018,-0.1985,-0.19,-0.196,-0.1805,-0.1792,-0.189,-0.1889,-0.1858,-0.1853,-0.19,-0.19,-0.1899,-0.1899,0,-0.1382,-0.1476,-0.1544,-0.1669,-0.1707,-0.1744,-0.1853,-0.1886,-0.1967,-0.1992,-0.2011,-0.2055,-0.2044,-0.2031,-0.2004,-0.1924,-0.1868,-0.1821,-0.1956,-0.1952,-0.1742,-0.174,-0.1711,-0.1707,-0.1704,-0.1701,-0.1699,0,-0.1346,-0.1381,-0.1509,-0.155,-0.1613,-0.169,-0.174,-0.1849,-0.1883,-0.1974,-0.197,-0.2004,-0.201,-0.1893,-0.1897,-0.1842,-0.1799,-0.1785,-0.1724,-0.1724,-0.1717,-0.172,-0.1722,-0.1694,-0.1693,-0.1692,-0.1691,0,-0.1265,-0.1323,-0.1377,-0.1454,-0.1524,-0.158,-0.1665,-0.1671,-0.179,-0.1887,-0.1874,-0.1854,-0.184,-0.1808,-0.1778,-0.1727,-0.1803,-0.1751,-0.1757,-0.1699,-0.1704,-0.17,-0.1706,-0.168,-0.1682,-0.1683,-0.1683,0,-0.1194,-0.1203,-0.1283,-0.1332,-0.1414,-0.144,-0.1502,-0.1554,-0.1598,-0.1721,-0.1711,-0.1752,-0.1822,-0.1747,-0.1713,-0.1664,-0.1628,-0.157,-0.1585,-0.1597,-0.1526,-0.1513,-0.1413,0,0,0,0,0,-0.1115,-0.1114,-0.1157,-0.1207,-0.1283,-0.1323,-0.1438,-0.1511,-0.1629,-0.1583,-0.1643,-0.1625,-0.1582,-0.1606,-0.1524,-0.164,-0.1623,-0.1538,-0.1563,-0.1618,-0.1631,-0.1553,0,0,0,0,0,0,-0.1065,-0.1097,-0.1107,-0.1084,-0.1095,-0.116,-0.1223,-0.1316,-0.1305,-0.1433,-0.1418,-0.1523,-0.15,-0.1591,-0.1484,-0.149,-0.1474,-0.1579,-0.1575,-0.1611,-0.1623,-0.1633,-0.1557,0,0,0,0,0]},{"header":{"parameterUnit":"m.s-1","parameterCategory":2,"la1":30.2991,"la2":30.254,"lo1":-89.0895,"lo2":-89.0444,"dx":0.0017,"dy":0.0017,"nx":28,"ny":28,"refTime":"2022-12-13T09:00:00:Z","depth":"4","parameterNumber":3,"parameterNumberName":"V-component_of_CURRENTS"},"data":[0,0,0,0,0,0,0,0,0,0,0,0,0,0,0,0,0,0,0,0,0,0,0,0,0,0,0,0,0,0,0,0,0,0,0,0,0,0,0,0,0,0,0,0,0,0,0,0,0,0,0,0,0,0,0,0,0,0,-0.0151,-0.0151,0,-0.0126,-0.0126,-0.0126,-0.0115,-0.0115,-0.0115,-0.0115,-0.0097,-0.0097,-0.0097,0,0,0,0,0,0,0,0,0,0,0,0,0,-0.0174,-0.0174,-0.0151,-0.0151,-0.0151,-0.0126,-0.0126,-0.0126,-0.0115,-0.0115,-0.0115,-0.0115,-0.0098,-0.0097,-0.0097,0,0,0,0,0,0,0,0,0,0,0,0,0,-0.0159,-0.0174,-0.0151,-0.0142,-0.014,-0.0126,-0.0126,-0.0125,-0.0115,-0.0115,-0.0115,-0.0115,-0.0098,-0.0097,-0.0097,-0.0094,0,0,-0.0095,-0.0094,0,0,0,0,0,0,0,0,-0.016,-0.0158,-0.0143,-0.0142,-0.0141,-0.0123,-0.0127,-0.0115,-0.0115,-0.0125,-0.0115,-0.0115,-0.0106,-0.0105,-0.0101,-0.0093,-0.0092,-0.0095,-0.0094,-0.0094,-0.0094,0,0,0,0,0,0,0,-0.0161,-0.0159,-0.0142,-0.0143,-0.0141,-0.0133,-0.0131,-0.0125,-0.0117,-0.0125,-0.0123,-0.0119,-0.0106,-0.0102,-0.0101,-0.0092,-0.0095,-0.0094,-0.0094,-0.0093,-0.0097,-0.0098,0,0,0,0,0,0,-0.0163,-0.016,-0.0143,-0.0141,-0.0149,-0.0132,-0.013,-0.0129,-0.0117,-0.0115,-0.0119,-0.0119,-0.0103,-0.0102,-0.01,-0.0114,-0.0094,-0.0093,-0.0093,-0.0097,-0.0097,-0.0098,0,0,0,0,0,0,-0.0164,-0.0162,-0.0144,-0.0149,-0.0146,-0.0132,-0.0131,-0.0129,-0.0126,-0.0113,-0.0111,-0.0118,-0.0103,-0.0101,-0.0101,-0.0113,-0.0093,-0.0092,-0.0096,-0.0097,-0.0098,-0.0131,0,0,0,0,0,0,-0.0164,-0.0162,-0.0167,-0.015,-0.0146,-0.0142,-0.0131,-0.0128,-0.0122,-0.0122,-0.0111,-0.011,-0.0103,-0.0102,-0.01,-0.0112,-0.0092,-0.0096,-0.0097,-0.0097,-0.0129,-0.0132,-0.0135,0,0,0,0,0,-0.0165,-0.0175,-0.0167,-0.0165,-0.0151,-0.0142,-0.014,-0.013,-0.0123,-0.0126,-0.0119,-0.011,-0.0107,-0.0102,-0.01,-0.0111,-0.0095,-0.0096,-0.0097,-0.0128,-0.0132,-0.0135,0,0,0,0,0,0,-0.019,-0.0174,-0.0166,-0.017,-0.0158,-0.014,-0.0144,-0.0131,-0.0127,-0.0129,-0.0114,-0.0112,-0.0118,-0.0109,-0.0104,-0.0115,-0.01,-0.0101,-0.0124,-0.0128,-0.0131,-0.0128,-0.0091,0,0,0,0,0,-0.0196,-0.0199,-0.0178,-0.0183,-0.0178,-0.016,-0.0155,-0.0147,-0.0138,-0.0135,-0.0125,-0.012,-0.0121,-0.0119,-0.0117,-0.012,-0.0087,-0.0127,-0.013,-0.0133,-0.013,-0.0094,-0.0093,-0.0101,-0.0101,-0.0101,0,0,-0.0207,-0.0198,-0.02,-0.0188,-0.0179,-0.0182,-0.0158,-0.0155,-0.0158,-0.0135,-0.014,-0.013,-0.0124,-0.0132,-0.0133,-0.0125,-0.0111,-0.0134,-0.0137,-0.0132,-0.0095,-0.0093,-0.0093,-0.0102,-0.0102,-0.0102,0,0,-0.0235,-0.0223,-0.0235,-0.0228,-0.0216,-0.0202,-0.0201,-0.0182,-0.0175,-0.0174,-0.0163,-0.0158,-0.0155,-0.0152,-0.0151,-0.0168,-0.0129,-0.017,-0.0184,-0.0149,-0.0148,-0.0146,-0.009,-0.0084,-0.0172,-0.0172,-0.0172,0,-0.0251,-0.0263,-0.0238,-0.0249,-0.0248,-0.0213,-0.0227,-0.0215,-0.0198,-0.0191,-0.0183,-0.0173,-0.0165,-0.0173,-0.0179,-0.0176,-0.0139,-0.0171,-0.0153,-0.015,-0.0148,-0.0091,-0.0083,-0.0173,-0.0173,-0.0173,-0.0173,0,-0.0287,-0.0298,-0.0305,-0.0306,-0.0299,-0.0306,-0.0281,-0.0272,-0.0254,-0.0237,-0.0232,-0.0217,-0.0206,-0.0208,-0.0198,-0.0187,-0.016,-0.016,-0.0141,-0.0149,-0.0088,-0.0079,-0.0176,-0.0175,-0.0175,-0.0174,0,0,-0.0321,-0.0331,-0.0334,-0.0347,-0.0331,-0.0331,-0.0328,-0.0314,-0.0306,-0.0288,-0.0275,-0.0276,-0.0248,-0.0245,-0.0231,-0.0203,-0.0151,-0.0174,-0.0172,-0.0115,-0.0051,-0.0052,-0.0041,-0.0146,-0.0145,-0.0144,-0.001,0,-0.0359,-0.0399,-0.0385,-0.0416,-0.0433,-0.0399,-0.0397,-0.0375,-0.0345,-0.032,-0.0293,-0.028,-0.0269,-0.0259,-0.023,-0.0168,-0.0131,-0.0186,-0.0055,-0.0051,-0.0047,-0.0033,-0.0141,-0.0003,-0.0001,0.0,0.0002,0,-0.0399,-0.0421,-0.0463,-0.0472,-0.0474,-0.0484,-0.0463,-0.0456,-0.0406,-0.0378,-0.0348,-0.0309,-0.0266,-0.0254,-0.0152,-0.0184,-0.0119,-0.0072,-0.0066,-0.0049,-0.0035,0.0004,0.0018,0.0017,0.0016,0.0015,0.0014,0,-0.044,-0.0471,-0.0509,-0.0516,-0.0519,-0.0528,-0.0522,-0.0481,-0.0469,-0.041,-0.0381,-0.0322,-0.0281,-0.0205,-0.0101,-0.0117,0.0028,0.0017,0.0077,0.008,0.0055,0.0052,0.009,0.009,0.009,0.0089,0.0089,0,-0.0486,-0.0516,-0.0538,-0.0563,-0.0598,-0.0577,-0.0591,-0.0565,-0.052,-0.0497,-0.0419,-0.0381,-0.0266,-0.0168,-0.0085,0.0034,0.0044,0.0087,0.0111,0.004,0.0033,0.0063,0.0058,0.0095,0.0093,0.0092,0.0092,0,-0.0526,-0.0543,-0.0589,-0.0613,-0.0624,-0.0648,-0.0649,-0.0647,-0.0593,-0.0553,-0.0532,-0.0409,-0.0273,-0.0149,0.0002,0.0055,0.0165,0.0201,0.0143,0.016,0.0194,0.0186,0.0288,0.0289,0.0289,0.029,0.0291,0,-0.055,-0.058,-0.0633,-0.0668,-0.0688,-0.0718,-0.0733,-0.0695,-0.0679,-0.0574,-0.0551,-0.0407,-0.0314,-0.0086,0.0033,0.0213,0.0217,0.0281,0.0209,0.02,0.0214,0.0204,0.0194,0.0292,0.0292,0.0293,0.0293,0,-0.0591,-0.0611,-0.0649,-0.0725,-0.0765,-0.0792,-0.0804,-0.0797,-0.0729,-0.0679,-0.0548,-0.0413,-0.025,-0.0083,0.0071,0.0182,0.0241,0.029,0.0288,0.0221,0.0207,0.0217,0.0207,0.0296,0.0296,0.0295,0.0295,0,-0.0612,-0.0649,-0.0706,-0.0766,-0.0822,-0.0846,-0.0849,-0.0807,-0.0774,-0.0644,-0.0604,-0.0414,-0.0295,-0.0097,0.0033,0.0161,0.0171,0.0183,0.0186,0.0184,0.0099,0.0062,0.0138,0,0,0,0,0,-0.0628,-0.0673,-0.074,-0.08,-0.0856,-0.088,-0.0882,-0.0865,-0.0799,-0.0712,-0.065,-0.0493,-0.026,-0.0156,-0.0029,0.0019,0.0172,0.0168,0.0181,0.0313,0.0309,0.0224,0,0,0,0,0,0,-0.064,-0.0706,-0.0741,-0.0814,-0.0858,-0.0901,-0.0904,-0.0861,-0.0799,-0.0715,-0.0589,-0.0484,-0.0262,-0.033,-0.0032,0.001,0.0028,0.029,0.0292,0.0315,0.0312,0.0309,0.022,0,0,0,0,0]}]]